Location: Oshawa
(43.9000°N, 78.8670°W)
Time: 05:22:09
(UTC-04:00)

Cosmos 1408 Rocket - Visible Passes

Search period start: 24 October 2017 00:00
Search period end: 03 November 2017 00:00
Orbit: 601 x 631 km, 82.6° (Epoch: 23 October)

Date Brightness Start Highest point End Pass type
(mag) Time Alt. Az. Time Alt. Az. Time Alt. Az.
24 Oct 3.6 06:59:11 10° S 07:03:31 84° E 07:07:54 10° N visible
24 Oct 5.8 18:44:00 10° NNW 18:47:58 32° W 18:51:55 10° SSW visible
25 Oct 6.9 05:40:27 10° ESE 05:42:42 14° E 05:44:58 10° NE visible
25 Oct 6.7 19:01:09 10° NW 19:04:13 18° W 19:07:16 10° SW visible
26 Oct 6.0 05:55:24 10° SE 05:58:54 24° E 06:02:27 10° NE visible
26 Oct 7.4 19:19:43 10° WNW 19:20:22 10° W 19:21:01 10° W visible
27 Oct 4.8 06:11:05 10° SSE 06:15:11 43° E 06:19:22 10° NNE visible
28 Oct 3.6 06:27:13 10° S 06:31:33 81° E 06:35:59 10° N visible
29 Oct 6.7 05:08:36 10° ESE 05:10:46 14° E 05:12:57 10° NE visible
29 Oct 3.6 06:43:46 10° SSW 06:48:02 55° W 06:52:22 10° N visible
30 Oct 5.9 05:23:29 10° SE 05:26:58 24° E 05:30:28 10° NE visible
30 Oct 4.3 07:00:44 10° SW 07:04:36 31° WNW 07:08:32 10° NNW visible
30 Oct 7.2 18:47:25 10° WNW 18:48:27 11° W 18:49:29 10° W visible
31 Oct 4.8 05:39:08 10° SSE 05:43:14 42° E 05:47:24 10° NNE visible
31 Oct 4.9 07:18:13 10° WSW 07:21:16 18° WNW 07:24:21 10° NNW visible
01 Nov 3.6 05:55:16 10° S 05:59:36 78° E 06:04:02 10° N visible
02 Nov 6.6 04:36:46 10° ESE 04:38:50 13° E 04:40:55 10° NE visible
02 Nov 3.5 06:11:47 10° SSW 06:16:05 57° W 06:20:26 10° N visible
